CDT,Max TemperatureF,Mean TemperatureF,Min TemperatureF,Max Dew PointF,MeanDew PointF,Min DewpointF,Max Humidity, Mean Humidity, Min Humidity, Max Sea Level PressureIn, Mean Sea Level PressureIn, Min Sea Level PressureIn, Max VisibilityMiles, Mean VisibilityMiles, Min VisibilityMiles, Max Wind SpeedMPH, Mean Wind SpeedMPH, Max Gust SpeedMPH,PrecipitationIn, CloudCover, Events, WindDirDegrees
2012-10-1,77,66,55,70,62,52,100,91,74,29.80,29.64,29.52,10.0,8.3,2.0,26,8,23,0.00,7,,141
2012-10-2,64,57,50,63,57,48,100,91,77,30.01,29.82,29.67,10.0,5.7,0.2,10,4,,0.00,7,,261
2012-10-3,73,60,48,57,54,48,100,80,53,30.22,30.12,30.02,10.0,6.9,0.2,8,2,,0.00,3,,189
2012-10-4,78,64,51,61,56,48,100,80,47,30.32,30.26,30.22,10.0,9.5,0.8,7,1,,0.00,2,,217
2012-10-5,78,64,51,61,56,50,94,78,44,30.24,30.14,30.02,10.0,9.1,0.2,9,2,,0.00,1,,209
2012-10-6,62,53,44,57,47,39,100,85,58,30.15,30.10,30.00,10.0,8.6,2.0,12,7,,0.00,6,,357
2012-10-7,57,50,44,43,40,36,93,77,44,30.22,30.15,30.10,10.0,10.0,10.0,10,6,,0.00,4,,353
2012-10-8,53,45,37,45,42,36,93,86,67,30.22,30.18,30.14,10.0,8.8,0.8,7,4,,0.00,6,,29
2012-10-9,62,48,33,48,42,32,100,81,52,30.18,30.11,30.05,10.0,9.3,0.5,8,1,,0.00,0,,160
2012-10-10,62,50,39,54,48,37,94,83,68,30.24,30.16,30.06,10.0,9.7,5.0,10,3,,0.00,5,,308
2012-10-11,66,52,37,52,43,36,93,69,40,30.30,30.26,30.23,10.0,10.0,10.0,9,2,,0.00,4,,242
2012-10-12,66,62,57,63,57,50,100,90,72,30.31,30.27,30.21,10.0,7.5,1.5,15,3,31,0.00,8,,324
2012-10-13,77,66,55,61,58,55,100,79,57,30.30,30.24,30.17,10.0,8.5,0.5,15,5,,0.00,3,,157
2012-10-14,73,68,62,64,60,54,94,79,65,30.18,30.06,29.95,10.0,9.9,5.0,18,11,30,0.00,5,,179
2012-10-15,69,56,44,63,50,43,100,78,40,30.04,29.99,29.95,10.0,8.2,0.2,14,5,,0.00,2,,325
2012-10-16,73,56,39,52,45,37,100,72,40,30.03,29.97,29.89,10.0,10.0,9.0,7,1,,0.00,0,,179
2012-10-17,73,58,44,52,47,43,100,62,38,29.92,29.83,29.66,10.0,10.0,10.0,17,5,,0.00,0,,168
2012-10-18,66,58,51,57,49,37,100,73,37,29.83,29.79,29.68,10.0,9.6,2.5,22,9,,0.00,3,,222
2012-10-19,66,55,44,43,39,36,81,58,32,29.87,29.78,29.72,10.0,9.9,4.0,22,8,32,0.00,3,,237
2012-10-20,60,48,37,45,42,36,100,76,52,30.03,29.95,29.86,10.0,10.0,9.0,13,2,,0.00,1,,309
2012-10-21,75,56,37,50,44,36,100,70,34,30.16,30.11,30.03,10.0,10.0,10.0,8,1,,0.00,0,,179
2012-10-22,78,64,51,54,49,43,88,62,28,30.22,30.17,30.13,10.0,10.0,10.0,12,3,,0.00,2,,199
2012-10-23,77,62,46,54,49,45,94,68,36,30.20,30.14,30.10,10.0,9.8,0.2,13,2,,0.00,0,,193
2012-10-24,78,61,44,54,48,43,100,70,34,30.19,30.14,30.08,10.0,9.9,6.0,8,1,,0.00,0,,197
2012-10-25,78,63,48,57,53,46,100,71,44,30.12,30.07,30.03,10.0,10.0,8.0,12,3,,0.00,1,,173
2012-10-26,73,60,46,59,51,45,94,81,57,30.10,30.06,30.00,10.0,9.6,3.0,21,4,,0.00,3,,341
2012-10-27,48,45,42,45,43,43,100,91,82,30.07,30.02,29.97,10.0,8.7,3.0,16,11,26,0.00,8,,4
2012-10-28,55,48,42,43,36,30,87,67,44,30.04,29.99,29.95,10.0,10.0,10.0,20,13,,0.00,6,,354
2012-10-29,51,42,33,30,27,18,87,59,30,30.07,30.01,29.88,10.0,10.0,10.0,20,12,33,0.00,0,,338
2012-10-30,51,40,30,28,23,19,80,48,28,29.87,29.82,29.77,10.0,10.0,10.0,25,14,29,0.00,0,,307
2012-10-31,57,42,28,28,24,18,86,52,23,29.96,29.90,29.85,10.0,10.0,10.0,15,7,,0.00,0,,294